Preview of NWS' New Version of Forecast
This preview is not operational and should not be used for support decisions.
Latest weather observations around

Chino, Chino Airport (KCNO)

Using English Units (Switch to International System of Units)
Date/ Time (PDT) Wind (mph) Vis. (mi) Weather Sky Cond. Temp (°F) Rel. Humidity Wind Chill (°F) Heat Index (°F) Pressure Precip. (in)
Air Dwpt 6 hour Altimeter (inHg) Sea level (inHg) 1 hr 3 hr 6 hr
Max Min
Jul 21 21:53 W 8 10 Clear CLR 71 62     73%   71 29.93 29.91      
Jul 21 20:53 WNW 9 10 Mostly Clear FEW200 75 61     62%   75 29.91 29.89      
Jul 21 19:53 WSW 11 10 Mostly Clear FEW200 78 60     54%   78 29.88 29.87      
Jul 21 18:53 WSW 14 10 Mostly Clear FEW050 FEW200 85 56     37%   84 29.86 29.85      
Jul 21 17:53 WSW 17 10 Mostly Clear FEW050 91        %     29.86 29.84      
Jul 21 16:53 W 17 10 Mostly Clear FEW080 FEW200 93 54     27%   91 29.86 29.84      
Jul 21 15:53 W 11 10 Mostly Clear FEW080 FEW200 95 54     25%   93 29.87 29.85      
Jul 21 14:53 W 11 10 Mostly Clear FEW200 95 53     24%   93 29.88 29.86      
Jul 21 13:53 WSW 9 10 Mostly Clear FEW200 94 54     26%   92 29.9 29.88      
Jul 21 12:53 6 10 Mostly Clear FEW200 92 58     32%   91 29.92 29.9      
Jul 21 11:53 W 6 10 Mostly Clear FEW200 88 56     34%   86 29.93 29.91      
Jul 21 10:53 Calm 10 Mostly Clear FEW200 82 58     44%   82 29.94 29.92      
Jul 21 09:53 Calm 9 Mostly Clear FEW200 76 59     56%   76 29.95 29.93      
Jul 21 08:53 3 10 Mostly Clear FEW200 70 60     71%     29.96 29.94      
Jul 21 07:53 Calm 10 Mostly Clear FEW200 66 61     84%     29.96 29.94      
Jul 21 06:53 W 3 10 Mostly Clear FEW200 63 61     93%     29.94 29.93      
Jul 21 05:53 W 6 10 Clear CLR 61 59     93%     29.93 29.91      
Jul 21 04:53 W 3 10 Clear CLR 61 59     93%     29.92 29.9      
Jul 21 03:53 S 3 10 Clear CLR 63 59     87%     29.91 29.9      
Jul 21 02:53 W 5 10 Clear CLR 62 58     86%     29.92 29.9      
Jul 21 01:53 Calm 10 Clear CLR 63 59     87%     29.93 29.91      
Jul 21 00:53 Calm 10 Clear CLR 64 59     84%     29.94 29.92      
Jul 20 23:53 W 6 10 Clear CLR 64 58     81%     29.93 29.92      
Jul 20 22:53 W 7 10 Clear CLR 69 59     70%     29.92 29.91      
Jul 20 21:53 W 6 10 Clear CLR 67 59     76%     29.91 29.9      
Jul 20 20:53 WSW 9 10 Clear CLR 71 60     68%   71 29.89 29.87      
Jul 20 19:53 WSW 11 10 Clear CLR 74 60     62%   74 29.87 29.85      
Jul 20 18:53 WSW 15 10 Clear CLR 78 58     50%   78 29.86 29.85      
Jul 20 17:53 WSW 18 10 Clear CLR 82 55     40%   81 29.86 29.84      
Jul 20 16:53 WSW 16 10 Clear CLR 86 53     32%   84 29.87 29.85      
Jul 20 15:53 WSW 14 10 Clear CLR 87 54     32%   85 29.88 29.86      
Jul 20 14:53 WSW 10 10 Clear CLR 88 52     29%   86 29.89 29.87      
Jul 20 13:53 5 10 Clear CLR 88 54     31%   86 29.91 29.89      
Jul 20 12:53 W 5 10 Clear CLR 85 55     36%   84 29.93 29.91      
Jul 20 11:53 3 10 Clear CLR 81 57     44%   81 29.95 29.93      
Jul 20 10:53 3 10 Clear CLR 75 58     55%   75 29.97 29.95      
Jul 20 09:53 Calm 7 Clear   71 60     68%   71 29.98 29.96      
Jul 20 08:53 S 3 7 Cloudy OVC014 67 61     81%     29.98 29.97      
Jul 20 07:53 S 6 7 Cloudy OVC014 65 60     84%     29.98 29.96      
Jul 20 06:53 Calm 8 Cloudy OVC014 64 61     90%     29.97 29.95      
Jul 20 05:53 SW 5 10 Cloudy OVC013 64 60     87%     29.97 29.95      
Jul 20 04:53 WNW 3 10 Cloudy OVC012 63 61     93%     29.96 29.94      
Jul 20 03:53 W 5 9 Cloudy OVC012 63 61     93%     29.95 29.93      
Jul 20 03:24 W 7 10 Mostly Cloudy BKN013 62 61     96%     29.96        
Jul 20 03:16 W 5 10 Mostly Cloudy BKN015 62 60     93%     29.96        
Jul 20 02:53 WNW 6 10 Clear CLR 61 60     97%     29.96 29.94      
Jul 20 01:53 WSW 5 10 Clear CLR 61 59     93%     29.96 29.94      
Jul 20 00:53 SW 3 10 Clear CLR 63 60     90%     29.96 29.94      
Jul 19 23:53 W 5 10 Clear CLR 63 59     87%     29.95 29.94      
Jul 19 22:53 W 5 10 Clear CLR 67 60     79%     29.95 29.93      
Jul 19 21:53 WSW 9 10 Clear CLR 67 59     76%     29.93 29.92      
Jul 19 20:53 WSW 13 10 Clear CLR 69 59     70%     29.91 29.89      
Jul 19 19:53 WSW 11 10 Mostly Clear FEW250 72 59     64%   72 29.88 29.87      
Jul 19 18:53 W 17 10 Mostly Clear FEW180 76 57     52%   76 29.89 29.87      
Jul 19 17:53 WSW 16 10 Mostly Clear FEW250 79 57     47%   79 29.88 29.86      
Jul 19 16:53 WSW 16 10 Clear CLR 83 57     41%   82 29.88 29.86      
Jul 19 15:53 W 15 10 Mostly Clear FEW160 FEW250 85 55     36%   84 29.89 29.87      
Jul 19 14:53 W 10 10 Partly Cloudy SCT180 86 54     33%   84 29.91 29.89      
Jul 19 13:53 WNW 9 10 Partly Cloudy SCT180 86 55     35%   84 29.91 29.9      
Jul 19 12:53 W 7 10 Partly Cloudy SCT180 85 56     37%   84 29.93 29.91      
Jul 19 11:53 3 10 Clear CLR 78 58     50%   78 29.95 29.94      
Jul 19 10:53 3 10 Mostly Cloudy BKN100 76 59     56%   76 29.96 29.95      
Jul 19 09:53 3 10 Partly Cloudy SCT100 71 60     68%   71 29.97 29.95      
Jul 19 08:53 SE 5 8 Mostly Cloudy BKN012 68 62     81%     29.98 29.96      
Jul 19 07:53 SW 3 8 Cloudy OVC011 64 61     90%     29.97 29.96      
Jul 19 07:40 W 3 8 Cloudy OVC010 64 62     93%     29.97        
Jul 19 06:53 W 3 5 Fog/Mist OVC008 62 61     96%     29.96 29.94      
Jul 19 05:53 W 3 8 Cloudy OVC007 62 61     96%     29.95 29.93      
Jul 19 05:00 NW 7 7 Cloudy OVC008 62 60     93%     29.94        
Jul 19 04:53 WNW 7 8 Cloudy OVC010 62 61     96%     29.94 29.93      
Jul 19 04:41 WNW 6 9 Mostly Cloudy BKN010 61 60     97%     29.94        
Jul 19 03:53 W 6 10 Clear CLR 59 58     96%     29.94 29.92      
Jul 19 02:53 SW 3 10 Clear CLR 61 59     93%     29.94 29.92      
Jul 19 01:53 WSW 3 10 Clear CLR 62 59     90%     29.94 29.92      
Jul 19 00:53 Calm 10 Clear CLR 63 60     90%     29.95 29.93      
Jul 18 23:53 W 6 10 Clear CLR 64 60     87%     29.95 29.93      
Jul 18 22:53 W 7 10 Clear CLR 66 59     78%     29.95 29.93      
Jul 18 21:53 W 8 10 Clear CLR 67 60     79%     29.94 29.92      
Jul 18 20:53 WSW 10 10 Clear CLR 69 61     75%     29.92 29.9      
Jul 18 19:53 WSW 15 10 Clear CLR 73 61     66%   73 29.88 29.86      
Jul 18 18:53 W 18 10 Clear CLR 79 57     47%   79 29.88 29.86      
Jul 18 17:53 WSW 18 10 Clear CLR 84 53     35%   83 29.88 29.86      
Jul 18 16:53 WSW 17 10 Clear CLR 86 58     39%   85 29.89 29.88      
Jul 18 15:53 W 15 10 Clear CLR 89 55     32%   87 29.9 29.88      
Jul 18 14:53 W 14 10 Clear CLR 90 56     32%   88 29.92 29.9      
Jul 18 13:53 W 8 10 Clear CLR 89 56     33%   87 29.94 29.93      
Jul 18 12:53 WNW 8 10 Clear CLR 87 57     36%   86 29.96 29.94      
Jul 18 11:53 WNW 7 10 Clear CLR 84 60     44%   84 29.97 29.95      
Jul 18 10:53 WSW 5 6 Haze CLR 80 61     52%   81 29.99 29.97      
Jul 18 09:53 WSW 3 6 Haze CLR 74 61     64%   74 30 29.98      
Jul 18 08:53 SSW 5 6 Haze CLR 70 62     76%     30 29.98      
Jul 18 07:53 W 3 6 Haze CLR 66 62     87%     30 29.98      
Jul 18 06:53 WSW 3 6 Haze CLR 62 62     100%     29.99 29.97      
Jul 18 05:53 Calm 6 Fog/Mist CLR 60 59     96%     29.98 29.97      
Jul 18 04:53 Calm 7 Clear CLR 61 60     97%     29.98 29.96      
Jul 18 03:53 Calm 9 Clear CLR 62 60     93%     29.98 29.96      
Jul 18 02:53 Calm 9 Clear CLR 62 60     93%     29.99 29.97      
Jul 18 01:53 S 3 9 Clear CLR 63 60     90%     30 29.98      
Jul 18 00:53 Calm 9 Clear CLR 63 60     90%     29.99 29.97      
Jul 17 23:53 W 6 10 Clear CLR 63 60     90%     29.99 29.97      
Jul 17 22:53 W 5 10 Clear CLR 67 61     81%     29.98 29.96      
Jul 17 21:53 WSW 6 10 Clear CLR 66 60     81%     29.97 29.95      
Jul 17 20:53 SW 6 10 Clear CLR 68 61     78%     29.95 29.93      
Jul 17 19:53 WSW 13 10 Clear CLR 71 61     70%   71 29.93 29.92      
Jul 17 18:53 WSW 16 10 Clear CLR 77 61     58%   77 29.92 29.9      
Jul 17 17:53 W 17 10 Clear CLR 80 60     51%   81 29.91 29.9      
Jul 17 16:53 W 17 10 Clear CLR 83 60     46%   83 29.92 29.9      
Jul 17 15:53 W 16 10 Clear CLR 85 60     43%   85 29.92 29.9      
Jul 17 14:53 W 13 10 Clear CLR 87 59     39%   86 29.93 29.91      
Jul 17 13:53 W 14 10 Clear CLR 89 59     36%   88 29.93 29.91      
Jul 17 12:53 WNW 8 10 Clear CLR 89 58     35%   88 29.94 29.92      
Jul 17 11:53 NW 7 10 Clear CLR 87        %     29.95 29.93      
Jul 17 10:53 Calm 9 Clear CLR 82 59     46%   82 29.96 29.94      
Jul 17 09:53 SSW 5 7 Haze CLR 76 62     62%   76 29.96 29.94      
Jul 17 08:53 SW 3 6 Haze CLR 71 63     76%   71 29.95 29.93      
Jul 17 07:53 3 5 Haze CLR 66 64     93%     29.94 29.93      
Jul 17 06:53 W 3 5 Haze CLR 63 63     100%     29.92 29.91      
Jul 17 05:53 W 3 4 Fog/Mist CLR 61 61     100%     29.9 29.88      
Jul 17 04:53 W 6 5 Fog/Mist CLR 60 60     100%     29.88 29.86      
Jul 17 03:53 Calm 7 Clear CLR 61 61     100%     29.87 29.85      
Jul 17 02:53 Calm 8 Clear CLR 63 61     93%     29.88 29.85      
Jul 17 01:53 Calm 8 Clear CLR 63 61     93%     29.88 29.86      
Jul 17 00:53 WSW 7 9 Clear CLR 63 61     93%     29.88 29.86      
Jul 16 23:53 SW 3 10 Clear CLR 64 62     93%     29.88 29.86      
Jul 16 22:53 WSW 5 10 Clear   68 62     81%     29.87 29.85      
Jul 16 21:53 W 6 10 Clear CLR 68 62     81%     29.86 29.84      
Jul 16 20:53 W 11 10 Clear CLR 72 62     71%   72 29.84 29.82      
Jul 16 19:53 W 11 10 Clear CLR 76 61     60%   76 29.83 29.81      
Jul 16 18:53 W 13 10 Clear CLR 82 60     47%   82 29.81 29.8      
Jul 16 15:53 WNW 16 10 Clear CLR 92 59     33%   91 29.82 29.8      
Jul 16 14:53 WNW 16 10 Clear CLR 93 58     31%   92 29.84 29.82      
Jul 16 13:53 W 11 10 Clear CLR 94 57     29%   93 29.85 29.83      
Jul 16 12:53 W 9 10 Clear CLR 92 55     29%   90 29.86 29.84      
Jul 16 11:53 W 8 10 Clear CLR 93 55     28%   91 29.86 29.84      
Jul 16 10:53 WSW 6 10 Clear CLR 89 52     28%   87 29.86 29.84      
Jul 16 09:53 Calm 10 Clear CLR 85 56     37%   84 29.87 29.84      
Jul 16 08:53 Calm 10 Clear CLR 79 58     49%   79 29.87 29.85      
Jul 16 07:53 S 3 10 Clear CLR 73 61     66%   73 29.86 29.84      
Jul 16 06:53 Calm 10 Clear CLR 67 64     90%     29.85 29.83      
Jul 16 05:53 Calm 7 Clear CLR 64 61     90%     29.84 29.82      
Jul 16 04:53 Calm 8 Clear CLR 65 62     90%     29.83 29.81      
Jul 16 03:53 Calm 9 Clear CLR 66 61     84%     29.83 29.8      
Jul 16 02:53 Calm 8 Clear CLR 66 62     87%     29.83 29.81      
Jul 16 01:53 Calm 10 Clear CLR 68 62     81%     29.84 29.82      
Jul 16 00:53 Calm 10 Clear CLR 68 61     78%     29.86 29.83      
Jul 15 23:53 SE 3 10 Clear CLR 71 62     73%   71 29.87 29.84      
Jul 15 22:53 S 5 9 Clear CLR 75 61     62%   75 29.87 29.85      
Jul 15 21:53 WNW 6 10 Clear   77 61     58%   77 29.87 29.85      
Jul 15 20:53 WNW 8 10 Clear CLR 79 59     50%   79 29.85 29.83      
Jul 15 19:53 W 8 10 Clear CLR 82 52     35%   81 29.84 29.82      
Jul 15 18:53 SW 13 10 Clear CLR 87 54     32%   85 29.83 29.81      
Jul 15 17:53 WSW 11 10 Clear CLR 92 51     25%   89 29.83 29.81      
Jul 15 16:53 WSW 13 10 Clear CLR 93 51     24%   90 29.84 29.82      
Jul 15 15:53 W 13 10 Clear CLR 96        %     29.86 29.84      
Jul 15 14:53 WNW 11 10 Clear CLR 96        %     29.87 29.85      
Jul 15 13:53 WSW 10 10 Clear CLR 98        %     29.89 29.86      
Jul 15 12:53 5 10 Clear CLR 98 57     26%   97 29.89 29.87      
Jul 15 11:53 SW 7 10 Clear CLR 93 58     31%   92 29.91 29.89      
Jul 15 10:53 W 5 10 Clear CLR 88 56     34%   86 29.93 29.91      
Jul 15 09:53 SSW 5 10 Clear CLR 81 60     49%   82 29.94 29.92      
Jul 15 08:53 Calm 10 Clear CLR 75 62     64%   75 29.95 29.93      
Jul 15 07:53 Calm 10 Clear CLR 69 64     84%     29.95 29.93      
Jul 15 06:53 Calm 10 Clear CLR 64 64     100%     29.94 29.93      
Jul 15 05:53 Calm 5 Fog/Mist CLR 62 61     96%     29.94 29.92      
Jul 15 04:53 Calm 7 Clear CLR 61 60     97%     29.93 29.91      
Jul 15 03:53 Calm 7 Clear CLR 62 62     100%     29.93 29.91      
Jul 15 02:53 Calm 8 Clear CLR 63 61     93%     29.93 29.91      
Jul 15 01:53 Calm 8 Clear CLR 64 61     90%     29.95 29.92      
Jul 15 00:53 Calm 7 Clear CLR 67 62     84%     29.96 29.94      
Jul 14 23:53 W 3 9 Clear CLR 68 63     84%     29.97 29.95      
Jul 14 22:53 W 5 10 Clear CLR 69 62     78%     29.98 29.96      
Jul 14 21:53 WNW 8 10 Clear CLR 72 63     73%   72 29.97 29.95      
Jul 14 20:53 W 8 10 Clear CLR 74 63     69%   74 29.96 29.94      
Jul 14 19:53 W 13 10 Clear CLR 78 61     56%   78 29.93 29.91      
Jul 14 18:53 W 17 10 Clear CLR 83 61     48%   83 29.92 29.9      
Jul 14 17:53 WSW 15 10 Clear CLR 88 58     36%   87 29.91 29.89      
Jul 14 16:53 W 17 10 Mostly Clear FEW100 92 53     27%   89 29.91 29.89      
Jul 14 15:53 W 13 10 Mostly Clear FEW100 96 52     23%   93 29.92 29.9      
Jul 14 14:53 W 15 10 Clear CLR 98        %     29.92 29.91      
Jul 14 13:53 W 11 10 Mostly Clear FEW150 97        %     29.94 29.91      
Jul 14 12:53 WSW 13 10 Mostly Clear FEW120 96        %     29.95 29.93      
Jul 14 11:53 WSW 8 10 Clear CLR 93 62     36%   94 29.96 29.94      
Jul 14 10:53 Calm 6 Haze CLR 86 61     43%   86 29.97 29.95      
Jul 14 09:53 Calm 6 Haze CLR 80 62     54%   81 29.97 29.95      
Jul 14 08:53 Calm 4 Haze CLR 74 64     71%   74 29.98 29.96      
Jul 14 07:53 Calm 4 Fog/Mist CLR 68 64     87%     29.98 29.96      
Jul 14 06:53 Calm 4 Fog/Mist CLR 63 63     100%     29.97 29.96      
Jul 14 05:53 Calm 3 Fog/Mist CLR 62 62     100%     29.97 29.95      
Jul 14 04:53 W 5 3 Fog/Mist CLR 61 61     100%     29.97 29.95      
Jul 14 03:53 WSW 5 5 Fog/Mist CLR 62 62     100%     29.96 29.94      
Jul 14 02:53 W 5 6 Fog/Mist CLR 62 61     96%     29.96 29.94      
Jul 14 01:53 WNW 6 7 Clear CLR 63 62     97%     29.96 29.94      
Jul 14 00:53 W 5 8 Clear CLR 63 61     93%     29.96 29.94      
Jul 13 23:53 WNW 8 10 Clear CLR 67 62     84%     29.95 29.93      
Jul 13 22:53 WNW 7 10 Clear CLR 69 62     78%     29.94 29.91      
Jul 13 21:53 WNW 7 10 Clear CLR 72 62     71%   72 29.91 29.89      
Jul 13 20:53 W 9 10 Clear CLR 75 61     62%   75 29.88 29.86      
Jul 13 19:53 WSW 8 10 Clear CLR 80 59     49%   81 29.85 29.83      
Jul 13 18:53 W 13 10 Mostly Clear FEW200 86 59     40%   85 29.83 29.81      
Jul 13 17:53 SW 9 10 Clear CLR 89 55     32%   87 29.82 29.8      
Jul 13 16:53 WSW 8 10 Mostly Clear FEW100 92 56     30%   90 29.83 29.81      
Jul 13 15:53 W 17 10 Mostly Clear FEW100 93 57     30%   92 29.84 29.82      
Jul 13 14:53 W 15 10 Mostly Clear FEW100 95 56     27%   93 29.85 29.83      
Jul 13 13:53 W 8 10 Mostly Clear FEW100 95        %     29.87 29.84      
Jul 13 12:53 W 10 10 Mostly Clear FEW100 94 58     30%   93 29.87 29.85      
Jul 13 11:53 WNW 9 10 Mostly Clear FEW100 89 58     35%   88 29.88 29.86      
Jul 13 10:53 NW 7 9 Mostly Clear FEW100 86 59     40%   85 29.89 29.87      
Jul 13 09:53 S 7 7 Clear CLR 84 62     48%   85 29.88 29.86      
Jul 13 08:53 SSW 5 7 Clear CLR 77 62     60%   77 29.87 29.85      
Jul 13 07:53 WSW 5 7 Clear CLR 71 64     79%   72 29.87 29.85      
Jul 13 06:53 Calm 7 Clear CLR 67 65     93%     29.85 29.83      
Jul 13 06:01 Calm 4 Fog/Mist CLR 64 62     93%     29.84        
Jul 13 05:53 Calm 2.5 Fog/Mist CLR 64 63     96%     29.84 29.82      
Jul 13 04:53 Calm 6 Fog/Mist CLR 63 62     97%     29.84 29.82      
Jul 13 02:53 Calm 7 Clear CLR 65 62     90%     29.83 29.81      
Jul 13 00:53 WSW 3 8 Clear CLR 69 63     81%     29.84 29.82      
Jul 12 22:53 WNW 3 9 Clear   72 63     73%   72 29.84 29.82      
Jul 12 21:53 W 8 10 Clear CLR 75 63     66%   75 29.83 29.81      
Jul 12 20:53 WNW 8 10 Clear CLR 78 63     60%   78 29.81 29.8      
Jul 12 19:53 W 13 9 Clear CLR 80 62     54%   81 29.79 29.78      
Jul 12 18:53 W 13 10 Clear CLR 87 57     36%   86 29.78 29.76      
Jul 12 17:53 W 15 10 Mostly Clear FEW150 91 55     30%   89 29.77 29.75      
Jul 12 16:53 W 15 10 Mostly Clear FEW150 93        %     29.79 29.77      
Jul 12 15:53 W 15 10 Mostly Clear FEW200 95        %     29.8 29.78      
Jul 12 14:53 W 13 10 Mostly Clear FEW120 97 53     23%   95 29.81 29.78      
Jul 12 13:53 W 11 10 Mostly Clear FEW120 98 53     22%   96 29.83 29.8      
Jul 12 12:53 W 10 10 Mostly Clear FEW200 96 58     28%   95 29.84 29.82      
Jul 12 11:53 6 10 Mostly Clear FEW200 93 55     28%   91 29.87 29.85      
Jul 12 10:53 Calm 10 Mostly Clear FEW200 88 54     31%   86 29.89 29.87      
Jul 12 09:53 Calm 6 Haze CLR 80 60     51%   81 29.89 29.87      
Jul 12 08:53 Calm 4 Haze CLR 74 60     62%   74 29.9 29.89      
Jul 12 07:53 Calm 5 Haze CLR 70 62     76%     29.91 29.89      
Jul 12 06:53 Calm 5 Fog/Mist CLR 65 63     93%     29.91 29.89      
Jul 12 05:53 Calm 4 Fog/Mist CLR 61 59     93%     29.9 29.88      
Jul 12 04:53 Calm 7 Clear CLR 63 60     90%     29.89 29.87      
Jul 12 03:53 WSW 3 8 Clear CLR 62 59     90%     29.89 29.87      
Jul 12 02:53 Calm 8 Clear CLR 65 61     87%     29.9 29.88      
Jul 12 01:53 W 3 10 Clear CLR 66 60     81%     29.9 29.88      
Jul 12 00:53 W 6 10 Clear CLR 66 60     81%     29.91 29.89      
Jul 11 23:53 Calm 9 Clear CLR 67 61     81%     29.92 29.9      
Jul 11 22:53 WNW 7 10 Clear CLR 71 62     73%   71 29.93 29.91      
Jul 11 21:53 NW 6 10 Clear CLR 74 61     64%   74 29.93 29.91      
Jul 11 20:53 W 8 10 Clear CLR 76 61     60%   76 29.91 29.89      
Jul 11 19:53 WSW 10 10 Mostly Clear FEW200 80 60     51%   81 29.9 29.88      
Jul 11 18:53 WSW 9 10 Mostly Clear FEW180 86 57     37%   85 29.89 29.87      
Jul 11 17:53 WSW 15 10 Mostly Clear FEW200 89 56     33%   87 29.89 29.88      
Jul 11 16:53 W 15 10 Mostly Clear FEW200 92 53     27%   89 29.91 29.89      
Jul 11 15:53 WSW 16 10 Clear CLR 94 51     23%   91 29.92 29.9      
Jul 11 14:53 W 13 10 Clear CLR 95 53     24%   93 29.94 29.92      
Jul 11 13:53 W 13 10 Clear CLR 94 54     26%   92 29.95 29.93      
Jul 11 12:53 WNW 9 10 Clear CLR 92 52     26%   89 29.97 29.95      
Jul 11 10:53 5 10 Clear CLR 84 52     33%   82 30 29.98      
Jul 11 08:53 Calm 7 Clear CLR 73 57     57%   73 30.03 30.01      
Jul 11 07:53 Calm 7 Clear CLR 70 59     68%     30.03 30.02      
Jul 11 06:53 Calm 7 Clear CLR 65 60     84%     30.02 30.01      
Jul 11 05:53 Calm 7 Clear CLR 62 56     80%     30.02 30      
Jul 11 04:53 Calm 7 Clear CLR 62 57     84%     30 29.98      
Jul 11 03:53 Calm 9 Clear CLR 63 56     78%     29.99 29.97      
Jul 11 02:53 Calm 9 Clear CLR 64 56     75%     29.99 29.97      
Jul 10 23:53 WNW 6 10 Clear CLR 67 55     66%     30.02 30      
Jul 10 22:53 SW 3 10 Clear CLR 69 55     61%     30.02 30.01      
Jul 10 21:53 W 6 10 Clear CLR 69 55     61%     30.02 30      
Jul 10 20:53 W 9 10 Clear CLR 73 56     55%   73 30.01 29.99      
Jul 10 18:53 WSW 14 10 Clear CLR 81 59     47%   81 29.98 29.97      
Jul 10 17:53 SW 15 10 Clear CLR 85 57     39%   84 29.98 29.96      
Jul 10 16:53 W 15 10 Clear CLR 88        %     29.99 29.97      
Jul 10 15:53 WSW 13 10 Clear CLR 90 51     27%   87 30 29.98      
Jul 10 14:53 WSW 15 10 Clear CLR 93        %     30.01 29.99      
Jul 10 11:53 6 10 Clear CLR 87 58     37%   86 30.04 30.03      
Jul 10 10:53 WNW 5 10 Clear CLR 81 57     44%   81 30.05 30.04      
Jul 10 09:53 Calm 10 Clear   76 58     54%   76 30.06 30.05      
Jul 10 08:53 3 10 Clear CLR 71 60     68%   71 30.07 30.06      
Jul 10 06:53 Calm 7 Clear CLR 62 61     96%     30.06 30.04      
Jul 10 05:53 Calm 5 Fog/Mist CLR 60 59     96%     30.05 30.04      
Jul 10 04:53 Calm 8 Clear CLR 60 59     96%     30.04 30.02      
Jul 10 03:53 Calm 8 Clear CLR 61 59     93%     30.03 30.01      
Jul 10 02:53 Calm 9 Clear CLR 63 59     87%     30.03 30.01      
Jul 10 01:53 Calm 10 Clear CLR 63 59     87%     30.03 30.01      
Jul 10 00:53 SW 3 10 Clear CLR 63 59     87%     30.03 30.01      
Jul 09 23:53 NNW 3 8 Clear CLR 63 59     87%     30.04 30.02      
Jul 09 22:53 WSW 5 10 Clear CLR 65 60     84%     30.04 30.03      
Jul 09 21:53 W 9 10 Clear CLR 68 60     76%     30.03 30.01      
Jul 09 20:53 W 11 10 Clear CLR 70 60     71%     30.01 29.99      
Jul 09 19:53 W 11 10 Mostly Clear FEW250 73 60     64%   73 29.99 29.98      
Jul 09 18:53 WSW 14 10 Mostly Clear FEW250 77 59     54%   77 29.97 29.96      
Jul 09 17:53 WSW 17 10 Partly Cloudy SCT250 82 57     43%   82 29.96 29.94      
Jul 09 16:53 WSW 14 10 Partly Cloudy SCT250 88 56     34%   86 29.96 29.94      
Jul 09 15:53 WSW 10 10 Partly Cloudy SCT250 90        %     29.97 29.95      
Jul 09 14:53 5 10 Mostly Clear FEW250 89 51     27%   86 29.98 29.96      
Jul 09 13:53 Calm 10 Mostly Clear FEW250 88 56     34%   86 30 29.99      
Jul 09 12:53 6 10 Partly Cloudy SCT250 84 54     36%   83 30.02 30      
May 15 04:53 Calm 8 Clear CLR 53 48     83%     30 29.98      
May 12 10:53 SE 3 10 Cloudy BKN025 OVC035 61 51     70%     29.99 29.98     0
May 12 02:53 SW 7 9 Cloudy BKN023 OVC036 59 49     69%     29.89 29.88      
May 12 02:00 SW 5 10 Cloudy SCT025 OVC031 59 49     69%     29.89        
May 11 17:53 W 14 10 Cloudy OVC043 63 51     65%     29.82 29.81      
May 11 12:53 WNW 7 10 Cloudy OVC030 67 52     59%     29.87 29.85      
Jun 10 18:53 W 15 10 Mostly Cloudy FEW050 BKN200 68 53     59%     29.85 29.84      
Jun 09 20:53 WSW 9 10 Mostly Clear FEW018 67 59     76%     29.9 29.89      
Jun 09 19:53 WSW 11 10 Mostly Clear FEW040 70 59     68%     29.89 29.88      
Jun 09 15:53 SW 18 10 Mostly Clear FEW050 82 53     37%   81 29.88 29.87      
Jun 08 07:53 WSW 5 4 Haze OVC014 65 57     76%     30 29.99      
Jun 07 05:53 Calm 4 Haze OVC012 64 58     81%     29.93 29.92      
Jun 06 09:53 3 2.5 Haze OVC013 68 58     70%     29.96 29.94